Location: Lourdes
(43.1000°N, 0.0500°W)
Time: 05:15:21
(UTC+00:00)

Okean-O - Pass Details

Date: 30 November 2020
Orbit: 639 x 640 km, 98.2° (Epoch: 24 January)

Event Time Altitude Azimuth Distance (km) Brightness Sun altitude
Rises 19:10:03 0° 186° (S) 2,929 6.1 -29.2°
Reaches altitude 10° 19:12:23 10° 195° (SSW) 2,025 5.4 -29.6°
Maximum altitude 19:16:27 36° 262° (W) 1,016 4.1 -30.4°
Drops below altitude 10° 19:20:33 10° 330° (NNW) 2,041 5.5 -31.1°
Sets 19:22:55 0° 339° (NNW) 2,955 6.3 -31.6°
